Weather Roundup
Issued by NWS

Home | Current Version | Previous Version | Graphics & Text | Print | Product List | Glossary Off
Versions: 1 2 3 4 5 6 7 8 9 10 11 12 13 14 15 16 17 18 19 20 21 22 23 24 25 26 27 28 29 30 31 32 33 34 35 36 37 38 39 40 41 42 43 44 45 46 47 48 49 50

103
NZUS93 KARX 062359
HRRWXR

CURRENT HOURLY OBSERVATIONS ACROSS
MUCH OF THE UPPER MISSISSIPPI VALLEY
NATIONAL WEATHER SERVICE LA CROSSE WI
600 PM CST SAT FEB 06 2016


...SOUTHEAST MINNESOTA...


CITY           SKY/WX    TMP DP  RH WIND       PRES   REMARKS
ROCHESTER      CLOUDY    27  25  92 S18       29.95F WCI  14
ROCHESTER/MAYO CLOUDY    29  27  94 S16G22    29.95F WCI  17
WINONA         CLOUDY    32  27  80 SE5       30.01F WCI  27
AUSTIN         CLOUDY    28  27  93 S16       29.95F FOG     WCI  17
ALBERT LEA     CLOUDY    30  28  93 S15G21    29.93F WCI  19
DODGE CENTER   CLOUDY    28  27  93 S20       29.93F WCI  15
PRESTON        CLOUDY    26  24  91 S16       29.99F WCI  14
OWATONNA       CLOUDY    32  27  80 S15G23    29.92F WCI  22
FARIBAULT      CLOUDY    34  28  80 S14       29.90F WCI  24
$$

...ELSEWHERE IN MINNESOTA...


CITY           SKY/WX    TMP DP  RH WIND       PRES   REMARKS
MINNEAPOLIS    CLOUDY    35  26  69 S15G21    29.86F WCI  25
INTNL FALLS    LGT SNOW  30  28  92 SE7       29.65F VSB 3/4 WCI  23
DULUTH         CLOUDY    32  25  75 S13       29.74F WCI  22
RED WING       CLOUDY    34  27  75 S8        29.93F WCI  27
REDWOOD FALLS  CLOUDY    36  28  73 SW17      29.82F WCI  26
MANKATO        CLOUDY    34  27  75 S18G24    29.88F WCI  23
WORTHINGTON    CLOUDY    34  25  69 SW22      29.87R WCI  22
FAIRMONT       CLOUDY    34  27  75 S21       29.88F WCI  22
$$

...SOUTHWEST WISCONSIN...


CITY           SKY/WX    TMP DP  RH WIND       PRES   REMARKS
LA CROSSE      CLOUDY    30  24  78 S13       30.02F WCI  20
PRAIRIE DU CHI CLOUDY    32  25  77 S8        30.09F WCI  24
BOSCOBEL       MOCLDY    32  28  85 S12G20    30.09F WCI  23
LONE ROCK      MOCLDY    30  25  80 SW10      30.10S WCI  21
PLATTEVILLE    CLOUDY    31  28  90 SW13      30.11S WCI  21
FORT MC COY    CLOUDY    32  25  76 S6        30.04F WCI  26
VIROQUA        FAIR      29  25  84 S10       30.02F WCI  20
WIS DELLS      CLOUDY    31  24  75 S8        30.06F WCI  23
$$

...ELSEWHERE IN WISCONSIN...


CITY           SKY/WX    TMP DP  RH WIND       PRES   REMARKS
MILWAUKEE      PTCLDY    33  26  75 SW6       30.11F WCI  28
MADISON        MOCLDY    30  24  78 VRB7      30.09F WCI  23
GREEN BAY      CLOUDY    29  23  78 S7        30.05F WCI  22
EAU CLAIRE     CLOUDY    32  23  69 S12       29.93F WCI  23
BLACK RVR FLS  MOCLDY    33  24  69 S7        30.00F WCI  27
MEDFORD        CLOUDY    30  22  73 S10       29.93F WCI  21
WAUSAU         CLOUDY    33  23  66 S9        29.95F WCI  25
WIS RAPIDS     CLOUDY    31  22  69 S8        30.02F WCI  23
MARSHFIELD     CLOUDY    31  22  69 S13       29.96F WCI  21
RICE LAKE      CLOUDY    32  25  74 S9        29.91F WCI  24
$$

...NORTHEAST IOWA...


CITY           SKY/WX    TMP DP  RH WIND       PRES   REMARKS
WATERLOO       PTCLDY    29  26  89 S14       30.06F WCI  18
DUBUQUE        CLEAR     27  24  89 S6        30.10F WCI  20
DECORAH        CLOUDY    28  28 100 S9        30.03F WCI  20
MASON CITY     CLOUDY    28  26  92 S14       29.99F WCI  17
CHARLES CITY   CLOUDY    28  28 100 S16       30.03F FOG     WCI  17
OELWEIN        CLOUDY    30  30 100 S14       30.07F FOG     WCI  20
$$

...ELSEWHERE IN IOWA...


CITY           SKY/WX    TMP DP  RH WIND       PRES   REMARKS
DES MOINES     PTCLDY    35  29  78 S12       30.08F WCI  27
IOWA CITY      CLEAR     34  29  82 SW5       30.14F WCI  30
FORT DODGE     CLOUDY    34  27  75 S18       29.98F WCI  23
MARSHALLTOWN   PTCLDY    31  27  85 S10       30.06F WCI  22
CEDAR RAPIDS   CLEAR     31  31 100 W3        30.10F FOG
$$

...NORTHERN ILLINOIS...


CITY           SKY/WX    TMP DP  RH WIND       PRES   REMARKS
CHICAGO-OHARE  PTCLDY    37  28  70 SW7       30.14S WCI  32
CHICAGO-MIDWAY PTCLDY    39  27  62 SW5       30.15S
MOLINE         PTCLDY    35  28  75 S3        30.13F
ROCKFORD       PTCLDY    35  27  72 W3        30.15S
PEORIA         CLEAR     38  25  59 SW7       30.16S WCI  33
$$

NOTE: "FAIR" INDICATES FEW OR NO CLOUDS BELOW 12,000 FEET WITH NO
SIGNIFICANT WEATHER AND/OR OBSTRUCTIONS TO VISIBILITY. WIND
SPEEDS ARE IN MILES-PER-HOUR.




USA.gov is the U.S. government's official web portal to all federal, state and local government web resources and services.